Home   Weather   Port-aux-Francais   Past weeks
Flag for French Southern Territories

Past Weather in Port-aux-Francais, French Southern Territories — Yesterday and Last 2 Weeks

Now
27 °F

Chilly.


Feels Like: 18 °F
Forecast: 42 / 32 °F
Wind: 9 mph from Northwest

Location: Port-Aux-Francais Iles Kerguelen

Current Time: Jul 15, 2019 at 11:36:48 pm

Latest Report: Jul 15, 2019 at 10:00 pm


Visibility: N/A

Pressure: 29.76 "Hg

Humidity: 72%

Dew Point: 19 °F

Location of Port-aux-FrancaisLocation

Past Weather in Port-aux-Francais — Graph

°F

Port-aux-Francais Temperature Yesterday

Maximum temperature yesterday: 34 °F (at 2:00 pm)
Minimum temperature yesterday: 23 °F (at 8:00 am)
Average temperature yesterday: 29 °F

High & Low Weather Summary for the Past Weeks

 TemperatureHumidityPressure
High48 °F (Jul 3, 1:00 pm)96% (Jul 4, 7:00 am)29.76 "Hg (Jul 4, 7:00 am)
Low23 °F (Jul 14, 8:00 am)57% (Jul 5, 2:00 pm)28.17 "Hg (Jul 4, 8:00 pm)
Average34 °F80%29.17 "Hg
* Reported Jun 30 10:00 pm — Jul 15 10:00 pm, Port-aux-Francais. Weather by CustomWeather, © 2019

Note: Actual official high and low records may vary slightly from our data, if they occured in-between our weather recording intervals... More about our weather records

Advertising

Port-aux-Francais Weather History for the Previous 24 Hours

Scroll right to see more
 ConditionsComfort  
Time TempWeatherWind HumidityBarometerVisibility
10:00 pm
Mon, Jul 15
27 °FChilly.9 mph72%29.76 "HgN/A
9:00 pm31 °FChilly.20 mph74%29.75 "HgN/A
8:00 pm31 °FChilly.22 mph67%29.72 "HgN/A
7:00 pm31 °FChilly.22 mph85%29.70 "HgN/A
6:00 pm31 °FChilly.25 mph76%29.67 "HgN/A
5:00 pm31 °FChilly.17 mph88%29.64 "HgN/A
4:00 pm31 °FChilly.18 mph86%29.61 "HgN/A
3:00 pm31 °FChilly.28 mph82%29.56 "HgN/A
2:00 pm33 °FChilly.22 mph78%29.50 "HgN/A
1:00 pm32 °FChilly.24 mph77%29.47 "HgN/A
12:00 pm33 °FChilly.22 mph83%29.47 "HgN/A
11:00 am33 °FChilly.24 mph72%29.44 "HgN/A
10:00 am33 °FChilly.21 mph78%29.41 "HgN/A
9:00 am32 °FChilly.23 mph82%29.35 "HgN/A
8:00 am31 °FChilly.25 mph89%29.29 "HgN/A
7:00 am31 °FChilly.25 mph85%29.26 "HgN/A
6:00 am33 °FChilly.25 mph81%29.23 "HgN/A
5:00 am32 °FChilly.23 mph89%29.21 "HgN/A
4:00 am32 °FChilly.22 mph87%29.18 "HgN/A
3:00 am32 °FChilly.21 mph89%29.15 "HgN/A
2:00 am32 °FChilly.20 mph88%29.12 "HgN/A
1:00 am33 °FChilly.23 mph86%29.09 "HgN/A
12:00 am32 °FChilly.21 mph86%29.06 "HgN/A
11:00 pm
Sun, Jul 14
33 °FChilly.17 mph89%29.03 "HgN/A
Weather by CustomWeather, © 2019

See weather overview